Location: Unspecified
(0.0000°N, 0.0000°E)
Time: 09:08:13
(UTC+00:00)

NIMBUS 2 DEB - Pass Details

Date: 17 December 2025
Orbit: 956 x 1029 km, 100.4° (Epoch: 13 January)

Event Time Altitude Azimuth Distance (km) Brightness Sun altitude
Rises 03:43:02 0° 184° (S) 3,644 ? -30.2°
Reaches altitude 10° 03:45:42 10° 193° (SSW) 2,703 ? -29.6°
Enters shadow 03:48:31 24° 214° (SW) 1,876 ? -29.0°
